Location: Unspecified
(48.7670°N, 0.0000°E)
Time: 11:58:18
(UTC+00:00)

Altair - Pass Details

Date: 26 June 2019
Orbit: 1501 x 1683 km, 47.2° (Epoch: 19 July)

Event Time Altitude Azimuth Distance (km) Brightness Sun altitude
Rises 20:52:39 0° 260° (W) 4,716 10.6 -6.3°
Reaches altitude 10° 20:55:40 10° 260° (W) 3,756 10.0 -6.7°
Maximum altitude 21:05:15 82° 174° (S) 1,628 7.6 -7.7°
Drops below altitude 10° 21:15:14 10° 89° (E) 3,900 9.3 -8.8°
Sets 21:18:25 0° 89° (E) 4,905 9.8 -9.1°
